Location: Kumla
(59.1265°N, 15.1401°E)
Time: 17:16:08
(UTC+01:00)

A-11 Canister half - Pass Details

Date: 03 December 2023
Orbit: 1512 x 1687 km, 47.2° (Epoch: 25 February)

Event Time Altitude Azimuth Distance (km) Brightness Sun altitude
Rises 01:39:55 0° 226° (SW) 4,768 - -48.0°
Reaches altitude 10° 01:43:18 10° 217° (SW) 3,811 - -47.7°
Maximum altitude 01:51:42 35° 157° (SSE) 2,438 - -47.0°
Exits shadow 01:56:14 24° 115° (ESE) 2,940 10.5 -46.6°
Drops below altitude 10° 02:00:20 10° 98° (E) 3,927 11.4 -46.2°
Sets 02:03:53 0° 90° (E) 4,931 12.1 -45.9°
